Ogden, KS

5:55 PM CDT on July 24, 2016 (GMT -0500)
Manhattan Regional

Weather History for KMHK - October, 2014

Change the Weather History Date:

Saturday, October 4, 2014

  Actual Average Record
Temperature  
Mean Temperature 49 °F 60 °F  
Max Temperature 63 °F 73 °F 91 °F (2011)
Min Temperature 34 °F 47 °F 27 °F (1999)
Degree Days  
Heating Degree Days 16 7  
Month to date heating degree days 34 26  
Since 1 July heating degree days 91 96  
Cooling Degree Days 0 2  
Month to date cooling degree days 9 8  
Year to date cooling degree days 1562 1345  
Moisture  
Dew Point 34 °F    
Average Humidity 60    
Maximum Humidity 92    
Minimum Humidity 27    
Precipitation  
Precipitation 0.00 in 0.08 in 1.26 in (1998)
Month to date precipitation 1.04 0.34  
Year to date precipitation 19.21 28.05  
Sea Level Pressure  
Sea Level Pressure 30.05 in    
Wind  
Wind Speed 4 mph (West)    
Max Wind Speed 12 mph    
Max Gust Speed 17 mph    
Visibility 10 miles    
Events      
T = Trace of Precipitation, MM = Missing Value Source: NWS Daily Summary

Daily Weather History Graph

Daily Weather History Graph

Search for Another Location

Airport or City:

Trip Planner

Search our weather history database for the weather conditions in past years. The results will help you decide how hot, cold, wet, or windy it might be!

Date:

Astronomy

Oct. 04, 2014 Rise Set
Actual Time 7:25 AM CDT 7:04 PM CDT
Civil Twilight 6:58 AM CDT 7:31 PM CDT
Nautical Twilight 6:27 AM CDT 8:02 PM CDT
Astronomical Twilight 5:56 AM CDT 8:33 PM CDT
Moon 4:40 PM CDT (10/4) 2:56 AM CDT (10/4)
Length of Visible Light 12h 32m
Length of Day
11h 38m
Waxing Gibbous, 81% of the Moon is Illuminated
Oct 4
Waxing Gibbous
Oct 8
Full
Oct 15
Last Quarter
Oct 23
New
Oct 30
First Quarter

Hourly Weather History & Observations

Time (CDT) Temp. Windchill Dew Point Humidity Pressure Visibility Wind Dir Wind Speed Gust Speed Precip Events Conditions
12:52 AM 44.6 °F 42.2 °F 32.0 °F 61% 30.14 in 10.0 mi West 4.6 mph - N/A   Clear
1:52 AM 43.0 °F 40.3 °F 32.0 °F 65% 30.15 in 10.0 mi West 4.6 mph - N/A   Clear
2:52 AM 41.0 °F 38.0 °F 32.0 °F 70% 30.15 in 10.0 mi West 4.6 mph - N/A   Clear
3:52 AM 41.0 °F 37.1 °F 32.0 °F 70% 30.15 in 10.0 mi West 5.8 mph - N/A   Clear
4:52 AM 37.9 °F 35.5 °F 32.0 °F 79% 30.14 in 10.0 mi West 3.5 mph - N/A   Clear
5:52 AM 36.0 °F - 33.1 °F 89% 30.14 in 10.0 mi Calm Calm - N/A   Clear
6:52 AM 35.1 °F - 33.1 °F 92% 30.14 in 10.0 mi Calm Calm - N/A   Clear
7:52 AM 36.0 °F 33.3 °F 33.1 °F 89% 30.14 in 10.0 mi SW 3.5 mph - N/A   Clear
8:52 AM 44.1 °F 41.5 °F 35.1 °F 71% 30.14 in 10.0 mi WSW 4.6 mph - N/A   Clear
9:52 AM 46.9 °F - 33.1 °F 59% 30.15 in 10.0 mi Variable 4.6 mph - N/A   Clear
10:52 AM 50.0 °F - 35.1 °F 57% 30.15 in 10.0 mi WSW 6.9 mph - N/A   Clear
11:52 AM 53.1 °F - 33.1 °F 47% 30.13 in 10.0 mi NW 5.8 mph - N/A   Clear
12:52 PM 57.0 °F - 27.0 °F 32% 30.09 in 10.0 mi Variable 6.9 mph - N/A   Clear
1:52 PM 60.1 °F - 28.9 °F 31% 30.05 in 10.0 mi WNW 9.2 mph - N/A   Partly Cloudy
2:52 PM 62.1 °F - 28.9 °F 29% 30.01 in 10.0 mi Variable 6.9 mph - N/A   Clear
3:52 PM 62.1 °F - 30.9 °F 31% 29.99 in 10.0 mi WSW 9.2 mph - N/A   Clear
4:52 PM 63.0 °F - 30.9 °F 30% 29.97 in 10.0 mi West 9.2 mph - N/A   Clear
5:52 PM 61.0 °F - 33.1 °F 35% 29.95 in 10.0 mi WSW 6.9 mph - N/A   Clear
6:52 PM 55.0 °F - 39.9 °F 57% 29.94 in 10.0 mi Calm Calm - N/A   Clear
7:52 PM 48.0 °F - 41.0 °F 77% 29.93 in 10.0 mi Calm Calm - N/A   Clear
8:52 PM 48.9 °F - 41.0 °F 74% 29.91 in 10.0 mi Calm Calm - N/A   Clear
9:52 PM 50.0 °F - 42.1 °F 74% 29.89 in 10.0 mi Calm Calm - N/A   Clear
10:52 PM 50.0 °F - 42.1 °F 74% 29.88 in 10.0 mi Calm Calm - N/A   Clear
11:52 PM 48.9 °F - 42.1 °F 77% 29.85 in 10.0 mi Calm Calm - N/A   Clear